Weather History for Orange, MA

Change the Weather History Date:

Friday, March 29, 2013

  Actual Average Record
Temperature  
Mean Temperature 40 °F -  
Max Temperature 54 °F 45 °F 71 °F (1998)
Min Temperature 28 °F 26 °F 17 °F (2001)
Degree Days  
Heating Degree Days 25    
Moisture  
Dew Point 29 °F    
Average Humidity 66    
Maximum Humidity 92    
Minimum Humidity 34    
Precipitation  
Precipitation 0.00 in - - ()
Sea Level Pressure  
Sea Level Pressure 30.05 in    
Wind  
Wind Speed 3 mph (WNW)    
Max Wind Speed 13 mph    
Max Gust Speed 20 mph    
Visibility 10 miles    
Events      
Averages and records for this station are not official NWS values.
T = Trace of Precipitation, MM = Missing Value Source: NWS Daily Summary

Daily Weather History Graph

Daily Weather History Graph

Search for Another Location

Airport:

Trip Planner

Search our weather history database for the weather conditions in past years. The results will help you decide how hot, cold, wet, or windy it might be!

Date:

Astronomy

Mar. 29, 2013 Rise Set
Actual Time 6:36 AM EDT 7:11 PM EDT
Civil Twilight 6:08 AM EDT 7:40 PM EDT
Nautical Twilight 5:34 AM EDT 8:13 PM EDT
Astronomical Twilight 5:00 AM EDT 8:48 PM EDT
Moon 10:13 PM EDT (3/29) 7:39 AM EDT (3/29)
Length of Visible Light 13h 32m
Length of Day
12h 35m
Waning Gibbous, 93% of the Moon is Illuminated
Mar 29
Waning Gibbous
Apr 3
Last Quarter
Apr 10
New
Apr 18
First Quarter
Apr 25
Full

Hourly Weather History & Observations

Time (EDT) Temp. Windchill Dew Point Humidity Pressure Visibility Wind Dir Wind Speed Gust Speed Precip Events Conditions
12:52 AM 30.0 °F - 28.0 °F 92% 30.06 in 10.0 mi Calm Calm - N/A   Mostly Cloudy
1:52 AM 30.0 °F - 28.0 °F 92% 30.06 in 10.0 mi Calm Calm - N/A   Mostly Cloudy
2:52 AM 30.0 °F 26.5 °F 28.0 °F 92% 30.06 in 10.0 mi SSW 3.5 mph - N/A   Overcast
3:52 AM 30.9 °F - 28.9 °F 92% 30.05 in 10.0 mi Calm Calm - N/A   Overcast
4:52 AM 30.0 °F - 28.0 °F 92% 30.06 in 10.0 mi Calm Calm - N/A   Overcast
5:52 AM 28.9 °F - 27.0 °F 92% 30.06 in 10.0 mi Calm Calm - N/A   Overcast
6:52 AM 28.0 °F - 26.1 °F 92% 30.06 in 10.0 mi Calm Calm - N/A   Mostly Cloudy
7:52 AM 30.9 °F - 28.0 °F 89% 30.08 in 10.0 mi Calm Calm - N/A   Overcast
8:52 AM 36.0 °F - 32.0 °F 86% 30.08 in 10.0 mi Calm Calm - N/A   Clear
9:52 AM 46.0 °F 41.4 °F 30.9 °F 56% 30.07 in 10.0 mi NW 9.2 mph - N/A   Clear
10:52 AM 48.9 °F - 30.0 °F 48% 30.06 in 10.0 mi WNW 11.5 mph - N/A   Clear
11:52 AM 51.1 °F - 30.0 °F 44% 30.05 in 10.0 mi Variable 4.6 mph - N/A   Scattered Clouds
12:52 PM 52.0 °F - 28.9 °F 41% 30.03 in 10.0 mi WNW 8.1 mph - N/A   Mostly Cloudy
1:52 PM 52.0 °F - 28.0 °F 40% 30.01 in 10.0 mi NW 8.1 mph - N/A   Mostly Cloudy
2:52 PM 52.0 °F - 26.1 °F 37% 30.00 in 10.0 mi WNW 8.1 mph 18.4 mph N/A   Overcast
3:52 PM 52.0 °F - 24.1 °F 34% 30.00 in 10.0 mi West 10.4 mph - N/A   Overcast
4:52 PM 50.0 °F - 27.0 °F 41% 30.01 in 10.0 mi WNW 12.7 mph - N/A   Overcast
5:52 PM 46.9 °F - 28.9 °F 50% 30.03 in 10.0 mi WNW 10.4 mph 19.6 mph N/A   Overcast
6:52 PM 46.0 °F 41.4 °F 28.9 °F 51% 30.04 in 10.0 mi West 9.2 mph - N/A   Overcast
7:52 PM 44.1 °F 40.1 °F 30.0 °F 58% 30.05 in 10.0 mi WNW 6.9 mph - N/A   Overcast
8:52 PM 43.0 °F 39.5 °F 30.0 °F 60% 30.06 in 10.0 mi NNW 5.8 mph - N/A   Overcast
9:52 PM 42.1 °F - 30.0 °F 62% 30.07 in 10.0 mi Calm Calm - N/A   Overcast
10:52 PM 41.0 °F 39.0 °F 30.0 °F 65% 30.07 in 10.0 mi NW 3.5 mph - N/A   Overcast
11:52 PM 39.9 °F 37.8 °F 30.0 °F 68% 30.07 in 10.0 mi WNW 3.5 mph - N/A   Overcast